SPOT 6

Last updated on Thu Sep 24 2026 00:03:03 GMT+0000 (Coordinated Universal Time)

1 38755U 12047A 26266.64166639 .00000360 00000+0 87410-4 0 9997 2 38755 98.2030 332.7477 0001226 76.6330 283.5006 14.58536104747404
UTC large
Height (km)
Speed (km/s)
/
Latitude / Longitude
Inclination (degrees)
Orbital Period (minutes)
Azimuth
Elevation
Range (km)
Doppler Factor

Next 0 passes for location: London (51.5072 / 0.1276)

No passes found over London.
SPOT 6